Regional Weather Roundup
Issued by NWS

Home | Current Version | Previous Version | Graphics & Text | Print | Product List | Glossary Off
Versions: 1 2 3 4 5 6 7 8 9 10 11 12 13 14 15 16 17 18 19 20 21 22 23 24 25 26 27 28 29 30 31 32 33 34 35 36 37 38 39 40 41 42 43 44 45 46 47 48 49 50

000
ASUS43 KLSX 190507
RWRMO

WEATHER SUMMARY FOR MISSOURI
NATIONAL WEATHER SERVICE SPRINGFIELD MO
1200 AM CDT FRI SEP 19 2014

NOTE: "FAIR" INDICATES FEW OR NO CLOUDS BELOW 12,000 FEET WITH NO
       SIGNIFICANT WEATHER AND/OR OBSTRUCTIONS TO VISIBILITY.
       CURRENT SKY AND/OR WEATHER CONDITIONS ARE NOT AVAILABLE FOR
       CHILLICOTHE AND FARMINGTON.

MOZ001>031-035>038-043-044-053-054-190600-
...NORTHERN AND WESTERN MISSOURI...

CITY           SKY/WX    TMP DP  RH WIND       PRES   REMARKS
KANSAS CTY INT CLEAR     61  60  97 SE6       30.02S
KANSAS C DTWN  CLEAR     63  61  93 E5        30.01S
LEE`S SUMMIT   CLEAR     63  61  93 SE5       30.03S
ST JOSEPH      CLEAR     60  58  92 SE6       30.02S
CHILLICOTHE      N/A     61  57  87 SE3       30.06S
KIRKSVILLE     CLEAR     54  52  93 E5        30.08R

$$
MOZ066>068-077>081-088>096-101>105-190600-
...SOUTHWEST MISSOURI...

CITY           SKY/WX    TMP DP  RH WIND       PRES   REMARKS
SPRINGFIELD    CLEAR     63  60  90 SE7       30.05R
JOPLIN         PTCLDY    64  62  93 E7        30.03R

$$
MOZ032>034-039>042-045>050-055>058-069>072-190600-
...CENTRAL MISSOURI...

CITY           SKY/WX    TMP DP  RH WIND       PRES   REMARKS
COLUMBIA       MOCLDY    60  57  89 E6          N/A
JEFFERSON CITY MOCLDY    60  57  89 SE3       30.06S
ROLLA          FOG       59  57  93 CALM      30.06S VSB 1/2
SEDALIA        FOG       60  58  92 SE5       30.05F VSB 1/4
WHITEMAN AFB   CLEAR     60  59  98 SE5       30.03F
OSAGE BEACH    CLEAR     59  55  88 E3        30.06S

$$
MOZ051-052-059>065-190600-
...EAST CENTRAL MISSOURI...

CITY           SKY/WX    TMP DP  RH WIND       PRES   REMARKS
ST LOUIS INTL  PTCLDY    61  54  77 E6        30.08S
SPIRIT OF STL  CLEAR     54  54 100 CALM      30.07R FOG
ST CHARLES     FOG       54  54 100 CALM      30.07S VSB 1/2

$$
MOZ072>076-082>087-097>100-106>115-190600-
...SOUTH CENTRAL AND SOUTHEAST MISSOURI...

CITY           SKY/WX    TMP DP  RH WIND       PRES   REMARKS
CAPE GIRARDEAU CLEAR     58  57  97 CALM      30.05S FOG
FARMINGTON     PTCLDY    61  55  82 NE7       30.08S
POPLAR BLUFF   CLEAR     59  55  87 CALM      30.03S
WEST PLAINS    FOG       57  55  93 NE3       30.07S VSB 1/4

$$


USA.gov is the U.S. government's official web portal to all federal, state and local government web resources and services.